Location: Saint-Palais-sur-Mer
(45.6429°N, 1.0859°W)
Time: 23:56:33
(UTC+01:00)

Tiros 1 despin weight - Pass Details

Date: 12 February 2026
Orbit: 556 x 593 km, 48.2° (Epoch: 13 March)

Event Time Altitude Azimuth Distance (km) Brightness Sun altitude
Rises 19:31:04 0° 254° (WSW) 2,727 ? -11.8°
Reaches altitude 10° 19:33:19 10° 255° (WSW) 1,833 ? -12.2°
Maximum altitude 19:37:30 83° 343° (NNW) 565 ? -12.9°
Enters shadow 19:40:16 21° 71° (ENE) 1,281 ? -13.4°
Drops below altitude 10° 19:41:43 10° 72° (ENE) 1,845 - -13.6°
Sets 19:43:59 0° 73° (ENE) 2,746 - -14.0°
